Stations météo

réclame
Mon MeteoGroup
Elsenborn, Belgique (6496): Température de l'air & dewpoint: 13.06.2018 16:00:00 - 19.06.2018 16:00:00 (CEST)Elsenborn, Belgique (6496): Vitesse du vent & gusts: 13.06.2018 16:00:00 - 19.06.2018 16:00:00 (CEST)Elsenborn, Belgique (6496): Direction du vent: 13.06.2018 16:00:00 - 19.06.2018 16:00:00 (CEST)Elsenborn, Belgique (6496): reduced air pressure: 13.06.2018 16:00:00 - 19.06.2018 16:00:00 (CEST)Elsenborn, Belgique (6496): visibility: 13.06.2018 16:00:00 - 19.06.2018 16:00:00 (CEST)
Date & Time tt [°C] td [°C] ff [km/h] ff [knt] fx [km/h] fx [knt] dd ppp [hPa] vv [km]
19.06.2018 16:00:00 16,6 14,9 4 2 14 8 N 1025,0 20
19.06.2018 15:00:00 15,8 14,7 4 2 18 10 N 1025,2 2,6
19.06.2018 14:00:00 16,1 14,3 4 2 - - N 1025,0 19
19.06.2018 13:00:00 15,0 14,2 7 4 14 8 WSW 1025,2 7
19.06.2018 12:00:00 15,3 14,5 7 4 18 10 W 1024,9 4,4
19.06.2018 11:00:00 14,9 13,7 4 2 - - N 1024,7 16
19.06.2018 10:00:00 - - - - - - - - -
19.06.2018 09:00:00 - - - - - - - - -
19.06.2018 08:00:00 12,8 12,7 4 2 - - N 1024,5 4,2
19.06.2018 07:00:00 12,6 12,4 4 2 14 8 N 1024,5 5
19.06.2018 06:00:00 12,5 11,9 4 2 11 6 N 1024,0 16
19.06.2018 05:00:00 12,3 11,6 4 2 - - N 1023,5 18
19.06.2018 04:00:00 12,0 11,5 4 2 11 6 N 1023,6 13
19.06.2018 03:00:00 12,6 11,8 4 2 14 8 N 1023,3 14
19.06.2018 02:00:00 12,8 11,6 4 2 - - N 1023,3 19
19.06.2018 01:00:00 13,9 12,4 4 2 18 10 N 1022,8 20
19.06.2018 00:00:00 14,8 13,0 4 2 18 10 N 1022,7 20
18.06.2018 23:00:00 15,6 13,4 4 2 - - N 1022,2 20
18.06.2018 22:00:00 16,0 13,4 4 2 14 8 N 1021,6 20
18.06.2018 21:00:00 17,1 13,2 4 2 18 10 N 1021,2 20
18.06.2018 20:00:00 18,5 13,3 7 4 - - WSW 1020,6 20
18.06.2018 19:00:00 17,8 12,9 7 4 22 12 WSW 1020,7 20
18.06.2018 18:00:00 17,9 13,1 7 4 22 12 WSW 1020,8 20
18.06.2018 17:00:00 17,7 13,3 7 4 - - WSW 1021,1 20
18.06.2018 16:00:00 16,7 13,0 7 4 22 12 WSW 1021,7 20
18.06.2018 15:00:00 17,1 12,3 7 4 22 12 WSW 1021,2 20
18.06.2018 14:00:00 16,3 11,8 7 4 - - WSW 1021,6 20
18.06.2018 13:00:00 17,0 11,5 7 4 22 12 WSW 1021,1 20
18.06.2018 12:00:00 - - - - - - - - -
18.06.2018 11:00:00 - - - - - - - - -
18.06.2018 10:00:00 14,6 10,7 7 4 18 10 SW 1021,3 20
18.06.2018 09:00:00 13,1 10,6 4 2 14 8 N 1021,6 20
18.06.2018 08:00:00 11,6 10,3 4 2 - - N 1021,7 19
18.06.2018 07:00:00 11,6 9,7 4 2 7 4 N 1021,6 20
18.06.2018 06:00:00 11,3 9,5 4 2 7 4 N 1021,5 20
18.06.2018 05:00:00 11,3 9,4 4 2 - - N 1021,1 20
18.06.2018 04:00:00 10,8 9,6 0 0 4 2 N 1021,5 20
18.06.2018 03:00:00 10,6 9,3 4 2 7 4 N 1021,6 20
18.06.2018 02:00:00 10,8 9,3 4 2 - - N 1021,7 20
18.06.2018 01:00:00 10,1 9,1 4 2 7 4 N 1021,7 20
18.06.2018 00:00:00 11,6 9,3 4 2 11 6 N 1021,5 20
17.06.2018 23:00:00 11,5 9,1 4 2 - - N 1021,3 20
17.06.2018 22:00:00 12,0 8,9 4 2 11 6 - 1020,7 20
17.06.2018 21:00:00 12,3 8,4 4 2 18 10 N 1020,3 20
17.06.2018 20:00:00 13,3 8,0 7 4 - - N 1020,3 20
17.06.2018 19:00:00 13,6 7,3 11 6 22 12 W 1020,0 20
17.06.2018 18:00:00 13,8 7,5 11 6 22 12 W 1019,6 20
17.06.2018 17:00:00 13,8 8,8 11 6 - - W 1019,6 20
17.06.2018 16:00:00 14,1 9,2 11 6 29 16 W 1019,2 20
17.06.2018 15:00:00 14,8 9,4 11 6 29 16 W 1018,7 20
17.06.2018 14:00:00 14,8 9,7 7 4 - - WSW 1018,3 20
17.06.2018 13:00:00 14,7 9,6 11 6 29 16 WSW 1018,3 20
17.06.2018 12:00:00 14,8 10,2 11 6 22 12 WSW 1018,1 16
17.06.2018 11:00:00 14,0 10,3 7 4 - - WSW 1018,3 20
17.06.2018 10:00:00 12,6 10,1 7 4 22 12 WSW 1018,7 18
17.06.2018 09:00:00 12,3 9,7 7 4 14 8 WSW 1018,2 20
17.06.2018 08:00:00 11,5 10,2 4 2 - - N 1018,2 12
17.06.2018 07:00:00 9,5 9,2 4 2 4 2 N 1018,7 9
17.06.2018 06:00:00 7,9 7,8 0 0 4 2 N 1018,8 12
17.06.2018 05:00:00 7,5 7,0 4 2 - - N 1018,8 13
17.06.2018 04:00:00 7,7 7,4 4 2 4 2 N 1018,7 13
17.06.2018 03:00:00 9,0 8,3 4 2 4 2 N 1018,3 15
17.06.2018 02:00:00 9,7 9,0 4 2 - - N 1018,2 18
17.06.2018 01:00:00 10,0 9,7 2 1 4 2 - 1017,7 10
17.06.2018 00:00:00 11,0 9,9 4 2 7 4 N 1017,7 20
16.06.2018 23:00:00 11,6 10,6 4 2 - - N 1017,6 16
16.06.2018 22:00:00 12,8 11,5 4 2 11 6 N 1016,7 19
16.06.2018 21:00:00 14,5 12,3 7 4 14 8 W 1015,7 20
16.06.2018 20:00:00 16,0 13,8 7 4 - - W 1015,2 20
16.06.2018 19:00:00 15,9 15,5 4 2 22 12 N 1014,8 20
16.06.2018 18:00:00 18,8 13,1 7 4 14 8 SW 1013,8 20
16.06.2018 17:00:00 18,0 13,6 4 2 - - N 1014,6 20
16.06.2018 16:00:00 18,1 12,5 4 2 11 6 N 1014,5 19
16.06.2018 15:00:00 19,2 12,1 4 2 11 6 N 1014,3 20
16.06.2018 14:00:00 17,4 11,7 4 2 - - N 1015,2 20
16.06.2018 13:00:00 18,1 10,5 4 2 18 10 N 1015,2 20
16.06.2018 12:00:00 18,4 10,7 5 3 14 8 S 1015,3 1,9
16.06.2018 11:00:00 18,5 11,0 4 2 - - N 1015,2 20
16.06.2018 10:00:00 17,6 10,4 4 2 11 6 N 1015,7 20
16.06.2018 09:00:00 16,0 12,4 4 2 4 2 N 1016,0 20
16.06.2018 08:00:00 11,3 10,4 4 2 - - N 1017,2 20
16.06.2018 07:00:00 9,6 9,3 4 2 4 2 N 1017,5 20
16.06.2018 06:00:00 8,3 8,1 4 2 4 2 N 1017,7 19
16.06.2018 05:00:00 8,1 7,8 4 2 - - N 1017,7 15
16.06.2018 04:00:00 8,3 7,9 4 2 4 2 N 1017,8 15
16.06.2018 03:00:00 9,3 9,1 0 0 0 0 N 1018,0 19
16.06.2018 02:00:00 9,9 9,3 4 2 - - N 1018,0 17
16.06.2018 01:00:00 10,8 10,4 4 2 0 0 N 1017,8 20
16.06.2018 00:00:00 12,0 11,2 4 2 0 0 N 1017,3 20
15.06.2018 23:00:00 13,3 12,0 4 2 - - N 1017,2 20
15.06.2018 22:00:00 14,6 12,1 4 2 4 2 N 1016,8 20
15.06.2018 21:00:00 16,0 12,4 0 0 4 2 N 1016,5 20
15.06.2018 20:00:00 17,3 11,7 4 2 - - N 1016,2 20
15.06.2018 19:00:00 18,8 10,3 4 2 11 6 N 1015,7 20
15.06.2018 18:00:00 19,5 10,5 4 2 11 6 N 1015,5 20
15.06.2018 17:00:00 20,4 9,7 4 2 - - N 1015,5 20
15.06.2018 16:00:00 20,6 10,4 4 2 18 10 N 1015,6 20
15.06.2018 15:00:00 18,7 9,7 7 4 22 12 W 1016,1 20
15.06.2018 14:00:00 18,6 9,2 4 2 - - N 1016,2 20
15.06.2018 13:00:00 18,1 10,9 7 4 22 12 W 1016,6 20
15.06.2018 12:00:00 17,3 11,4 4 2 14 8 N 1016,7 20
15.06.2018 11:00:00 15,5 11,3 4 2 - - N 1017,2 20
15.06.2018 10:00:00 14,5 11,3 4 2 11 6 N 1017,3 20
15.06.2018 09:00:00 13,8 11,7 4 2 7 4 N 1017,2 20
15.06.2018 08:00:00 13,3 11,9 4 2 - - N 1017,1 12
15.06.2018 07:00:00 12,3 12,1 4 2 7 4 N 1017,1 6
15.06.2018 06:00:00 12,1 12,0 4 2 4 2 N 1017,0 6
15.06.2018 05:00:00 12,1 12,1 4 2 - - N 1016,7 6
15.06.2018 04:00:00 12,1 12,0 4 2 4 2 N 1016,7 17
15.06.2018 03:00:00 12,3 12,1 4 2 14 8 N 1017,0 19
15.06.2018 02:00:00 12,3 12,2 4 2 - - - 1017,2 2,9
15.06.2018 01:00:00 12,3 12,2 4 2 11 6 N 1017,3 1,4
15.06.2018 00:00:00 12,1 11,8 4 2 11 6 N 1017,3 2,7
14.06.2018 23:00:00 12,3 11,9 4 2 - - N 1017,3 6
14.06.2018 22:00:00 12,3 11,8 4 2 7 4 N 1017,2 7
14.06.2018 21:00:00 12,6 11,9 4 2 11 6 N 1016,6 8
14.06.2018 20:00:00 12,8 12,3 4 2 - - N 1016,2 11
14.06.2018 19:00:00 12,8 12,3 4 2 11 6 N 1016,1 5
14.06.2018 18:00:00 13,6 12,2 4 2 14 8 N 1015,7 18
14.06.2018 17:00:00 15,4 10,6 4 2 - - N 1015,1 20
14.06.2018 16:00:00 16,7 8,3 7 4 18 10 WSW 1014,7 20
14.06.2018 15:00:00 16,5 7,5 7 4 22 12 WSW 1014,8 20
14.06.2018 14:00:00 16,3 7,6 7 4 - - WSW 1015,2 18
14.06.2018 13:00:00 15,5 7,8 7 4 22 12 WSW 1015,7 20
14.06.2018 12:00:00 15,0 7,5 7 4 25 14 SW 1015,8 20
14.06.2018 11:00:00 14,0 6,8 7 4 - - SSW 1016,2 19
14.06.2018 10:00:00 13,4 7,1 7 4 18 10 N 1016,3 20
14.06.2018 09:00:00 12,5 9,1 4 2 14 8 N 1016,6 13
14.06.2018 08:00:00 8,8 7,8 4 2 - - N 1017,6 12
14.06.2018 07:00:00 4,3 4,3 4 2 0 0 N 1019,1 0,9
14.06.2018 06:00:00 2,2 2,2 4 2 4 2 N 1019,6 3,7
14.06.2018 05:00:00 2,0 1,8 4 2 - - N 1020,0 6
14.06.2018 04:00:00 2,9 2,8 0 0 0 0 N 1020,0 0,2
14.06.2018 03:00:00 2,9 2,6 4 2 0 0 N 1020,1 10
14.06.2018 02:00:00 3,9 3,7 4 2 - - N 1020,0 6
14.06.2018 01:00:00 5,0 4,8 0 0 0 0 N 1019,7 10
14.06.2018 00:00:00 6,0 5,5 4 2 0 0 N 1019,8 12
13.06.2018 23:00:00 7,4 6,6 0 0 - - N 1019,5 13
13.06.2018 22:00:00 9,0 7,9 0 0 4 2 N 1018,7 14
13.06.2018 21:00:00 11,8 7,9 4 2 7 4 N 1018,0 20
13.06.2018 20:00:00 12,3 8,4 4 2 - - N 1018,0 19
13.06.2018 19:00:00 12,3 7,9 4 2 14 8 N 1017,3 18
13.06.2018 18:00:00 13,0 7,7 7 4 14 8 N 1017,2 20
13.06.2018 17:00:00 12,2 7,9 7 4 - - NNE 1017,3 20
13.06.2018 16:00:00 13,0 7,4 7 4 14 8 NW 1017,0 20

tt = Température de l'air
td = dewpoint
ff = Vitesse du vent
fx = gusts
dd = Direction du vent
ppp = reduced air pressure
vv = visibility

stations d'obs. à proximité